千帆星座-155(QIANFAN-155)

导读

QIANFAN-155(NORAD编号69114)是中国上海垣信卫星科技有限公司千帆星座(G60星链)的一颗低轨宽带通信卫星,属于星座组网卫星。该卫星运行在近地轨道,近地点约790.7公里、远地点约814.7公里,轨道倾角约89度,绕行周期约100.9分钟。千帆星座计划构建由超1.4万颗低轨宽频卫星组成的商业网络,核心技术自主可控,旨在为全球提供低时延、高带宽的通信互联网服务,QIANFAN-155是该星座规模组网进程中的组成部分。

Basic Information
目录编号:
69114
目录名称:
QIANFAN-155
国际标识:
2026-108L
轨道中心:
EARTH
卫星名称:
千帆星座-155
卫星全名:
千帆星座-155(QIANFAN-155)
卫星状态:
在轨 (已飞行117 天)
发射日期:
2026-05-17 UTC
国别 :
中国 (CN)
星等 :
--
This satellite is enrolled in the Space Conjunction Data Service (SCDS) and the current flight risk assessment level is: No High Risk
Orbit Information
数据来源 国际轨道数据 AOE轨道数据
星历时间 2026-09-11T13:24:23+0800
9小时前
查看轨道信息
2026-09-10T06:00:00+0800
1天前
查看轨道信息
半长轴 7446.638km 7446.639km
偏心率 0.0002226 0.0002236
轨道倾角 89.019° 89.019°
近地点辐角 107.452° 105.919°
升交点赤经 13.428° 13.558°
平近点角 252.688° 13.390°
近地点 1066.843km 1066.836km
远地点 1070.159km 1070.168km
周期 106.586分钟 106.586分钟
每日圈数 13.510222 13.510218
Detailed Information
卫星平台:
155
覆盖范围:
全球
运营商:
上海垣信卫星科技有限公司
运营商所在国:
中国
使用方式:
暂无
Satellite Introduction
千帆星座,也被称为“G60星链”计划,是中国版“星链”的重要组成部分,旨在打造一个由1.4万多颗低轨宽频多媒体卫星构成的庞大星座。千帆星座计划由上海垣信卫星科技有限公司负责实施,于2023年启动建设。该项目是我国第二个低轨卫星大星座,旨在通过构建庞大的卫星网络,为全球用户提供高质量的通信和宽带互联网服务。
2D Orbit Map
3D Orbit Map
Orbit Altitude Analysis Chart
Orbit Inclination Analysis Chart
Orbit Comprehensive Analysis Chart
View Comprehensive Chart
Miss Distance Evolution Trend with All Objects
Collision Probability Evolution Trend with All Objects